Retour au catalogue

SL-8 DEB

ActifPO
NORAD 45514·DEBRIS·🇷🇺 Russia

Lancé Mar 17, 1980 depuis Plesetsk Cosmodrome

Loading…

Prochains Passages (prochaines 24 heures)

TLE

VieillissantSource: Space-Track

Époque: Sep 9, 2026, 11:47 UTC

1 45514U 80022D   26252.49125131  .00000433  00000-0  39471-3 0  9991
2 45514  82.9454 164.3624 0032485 349.8603  10.1896 13.80943062623950

Suivez SL-8 DEB en temps réel avec AllMySat

Download on the App Store